User: anonymous   Login
Location: Unspecified
(0.0000°N, 0.0000°E)
Time: 17:23:50
(UTC+00:00)
Language:

PRISM - Orbit

View from above orbital plane
View from above orbital plane
View from above satellite
View from above satellite

Ground track
Ground track

The orbit data is extracted from the following two-line orbital elements,

1 33493U 09002B   18116.40535466  .00001057  00000-0  99256-4 0  9991
2 33493  98.1354  16.4968 0016426 124.4455 235.8317 14.96166651502609
Epoch (UTC): 26 April 2018 09:43:42
Eccentricity: 0.0016426
inclination: 98.1354°
perigee height: 567 km
apogee height: 590 km
right ascension of ascending node: 16.4968°
argument of perigee: 124.4455°
revolutions per day: 14.96166651
mean anomaly at epoch: 235.8317°
orbit number at epoch: 50260

The dashed part of the orbit path shows where the satellite is in the earth's shadow,  

DLR